FLOCK 3P-6

Last updated on Wed Feb 14 2018 16:20:21 GMT+0000 (Coordinated Universal Time)

1 41969U 17008X 18044.72818222 .00002095 00000-0 89629-4 0 9998 2 41969 97.4658 110.2226 0009737 70.1850 290.0436 15.23908925 55133
UTC large
Height (km)
Speed (km/s)
/
Latitude / Longitude
Inclination (degrees)
Orbital Period (minutes)
Azimuth
Elevation
Range (km)
Doppler Factor

Next 0 passes for location: London (51.5072 / 0.1276)

Sorry there are no passes over London.
FLOCK 3P-6